Weather Roundup
Issued by NWS Chicago, IL

Current Version | Previous Version | Text Only | Print | Product List | Glossary On
Versions: 1 2 3 4 5 6 7 8 9 10 11 12 13 14 15 16 17 18 19 20 21 22 23 24 25 26 27 28 29 30 31 32 33 34 35 36 37 38 39 40 41 42 43 44 45 46 47 48 49 50
000
NZUS59 KLOT 191712
HRRLOT

CHICAGO AREA WEATHER ROUNDUP
NATIONAL WEATHER SERVICE CHICAGO/ROMEOVILLE IL
1100 AM CST THU JAN 19 2017

NOTE: "FAIR" INDICATES FEW OR NO CLOUDS BELOW 12,000 FEET WITH NO
SIGNIFICANT WEATHER AND/OR OBSTRUCTIONS TO VISIBILITY.

* THESE STATIONS ARE NOT UNDER NWS QUALITY CONTROL. THEY ALSO MAY NOT
  REPORT WEATHER SUCH AS PRECIPITATION OR FOG.

ILZ005-006-012>014-019>023-191800-
NORTHEAST ILLINOIS

CITY           SKY/WX    TMP DP  RH WIND       PRES   REMARKS
OHARE          CLOUDY    38  35  89 SE7       29.95F FOG
MIDWAY         CLOUDY    38  34  85 E5        29.96F FOG
AURORA         CLOUDY    37  35  92 SE6       29.96F FOG
LANSING*       CLOUDY    38  37  97 SE8       29.97F FOG
JOLIET*        PTSUNNY   39  37  93 SE5       29.97F FOG
WAUKEGAN       FOG       36  36 100 CALM      29.96F VSB 1/2
DUPAGE AIRPORT CLOUDY    38  35  89 SE6       29.94F FOG
WHEELING       CLOUDY    38  35  89 SE5       29.97F FOG
KANKAKEE*      PTSUNNY   39  37  91 SE7       29.97F FOG
MORRIS*        CLOUDY    37  36  94 SE3       29.96S FOG
LEWIS AIRPORT* PTSUNNY   38  38 100 SE7       29.96F FOG
NORTHERLY ISL    N/A     35  33  92 E5          N/A  WCI  31
$$

WIZ051-052-058>065-066-070>072-191800-
SOUTHEAST WISCONSIN

CITY           SKY/WX    TMP DP  RH WIND       PRES   REMARKS
MILWAUKEE      FOG       34  33  96 S5        29.97F VSB 1/4 WCI  30
KENOSHA*       FOG       35  34  96 CALM      29.96F VSB 1/2
RACINE*        CLOUDY    34  34 100 CALM      29.97F FOG
WAUKESHA       FOG       30  30 100 S6        29.97F VSB 1/4 WCI  24
WEST BEND      FOG       32  32 100 E5        29.95F VSB<1/4 WCI  27
$$

INZ001>003-010>013-019-020-191800-
NORTHWEST INDIANA

CITY           SKY/WX    TMP DP  RH WIND       PRES   REMARKS
GARY*          CLOUDY    41  36  81 SE6       29.98F FOG
MICHIGAN CITY* NOT AVBL
RENSSELAER*    NOT AVBL
VALPARAISO     CLOUDY    38  37  97 E8        29.98F FOG
$$

LMZ740>746-191800-
SOUTHERN LAKE MICHIGAN

STATION/POSITION TIME  SKY/WX   TEMP WIND        PRES    VSBY
                                AIR  DIR/SP/G
                 (UTC)          (F)  (DEG/KT/KT) (MB)    (MI)
HARRISON CRIB    1640            35  140/ 10/ 10   N/A
BURNHAM HARBOR   1700            35  110/  6       N/A
CALUMET HARBOR   1642            37   80/  4/  5 1014.7F
BURNS HARBOR     1640            38  130/  6/  8 1015.9F
MICHIGAN CITY    NOT AVBL
$$

ABBREVIATIONS USED IN REMARKS
   TC - TEMPERATURE IN CELSIUS
  WCI - WIND CHILL INDEX
   HX - HEAT INDEX
  VSB - VISIBILITY
$$




USA.gov is the U.S. government's official web portal to all federal, state and local government web resources and services.